TimeEST,TemperatureF,Dew PointF,Humidity,Sea Level PressureIn,VisibilityMPH,Wind Direction,Wind SpeedMPH,Gust SpeedMPH,PrecipitationIn,Events,Conditions,WindDirDegrees,DateUTC
12:15 AM,30.0,23.9,78,30.38,10.0,South,4.6,-,N/A,,Clear,180,2012-12-13 05:15:00
12:35 AM,30.2,23.9,77,30.37,10.0,South,4.6,-,N/A,,Clear,180,2012-12-13 05:35:00
12:54 AM,30.6,23.9,76,30.37,10.0,South,4.6,-,N/A,,Clear,180,2012-12-13 05:54:00
1:15 AM,30.2,23.7,77,30.37,10.0,South,4.6,-,N/A,,Clear,180,2012-12-13 06:15:00
1:35 AM,30.2,23.5,76,30.37,10.0,South,3.5,-,N/A,,Clear,190,2012-12-13 06:35:00
1:54 AM,29.5,23.4,78,30.37,10.0,SSW,4.6,-,N/A,,Clear,200,2012-12-13 06:54:00
2:15 AM,29.8,23.5,77,30.36,10.0,South,5.8,-,N/A,,Clear,170,2012-12-13 07:15:00
2:35 AM,30.0,23.5,77,30.37,10.0,SSW,4.6,-,N/A,,Clear,200,2012-12-13 07:35:00
2:55 AM,29.7,23.4,77,30.38,10.0,SSW,3.5,-,N/A,,Clear,200,2012-12-13 07:55:00
3:15 AM,28.4,22.8,80,30.38,10.0,South,3.5,-,N/A,,Clear,190,2012-12-13 08:15:00
3:34 AM,28.9,23.2,79,30.38,10.0,Calm,Calm,-,N/A,,Clear,0,2012-12-13 08:34:00
3:55 AM,27.5,22.6,82,30.38,10.0,South,4.6,-,N/A,,Clear,170,2012-12-13 08:55:00
4:15 AM,28.4,23.0,80,30.38,10.0,SSW,3.5,-,N/A,,Clear,200,2012-12-13 09:15:00
4:35 AM,28.0,23.0,81,30.37,10.0,South,4.6,-,N/A,,Clear,180,2012-12-13 09:35:00
4:55 AM,27.5,23.0,83,30.37,10.0,South,4.6,-,N/A,,Clear,180,2012-12-13 09:55:00
5:14 AM,28.0,23.2,82,-9999,10.0,South,5.8,-,N/A,,Clear,180,2012-12-13 10:14:00
5:35 AM,28.8,23.4,80,30.38,10.0,South,4.6,-,N/A,,Clear,190,2012-12-13 10:35:00
5:55 AM,28.0,23.0,81,30.38,10.0,South,3.5,-,N/A,,Clear,190,2012-12-13 10:55:00
6:14 AM,27.5,22.8,83,30.38,10.0,SSW,4.6,-,N/A,,Clear,200,2012-12-13 11:14:00
6:35 AM,28.2,23.0,81,30.38,10.0,South,5.8,-,N/A,,Clear,190,2012-12-13 11:35:00
6:55 AM,28.0,23.0,81,30.38,10.0,South,5.8,-,N/A,,Clear,180,2012-12-13 11:55:00
7:15 AM,27.9,23.0,82,30.39,10.0,South,4.6,-,N/A,,Clear,180,2012-12-13 12:15:00
7:35 AM,27.5,22.8,83,30.39,10.0,South,3.5,-,N/A,,Clear,170,2012-12-13 12:35:00
7:54 AM,27.0,22.5,83,30.38,10.0,South,3.5,-,N/A,,Clear,170,2012-12-13 12:54:00
8:15 AM,27.3,22.5,82,30.38,10.0,South,4.6,-,N/A,,Clear,180,2012-12-13 13:15:00
8:35 AM,28.8,23.0,79,30.38,10.0,South,4.6,-,N/A,,Clear,190,2012-12-13 13:35:00
8:54 AM,30.2,23.5,76,30.38,10.0,South,5.8,-,N/A,,Clear,190,2012-12-13 13:54:00
9:15 AM,32.0,23.7,71,30.38,10.0,SSW,5.8,-,N/A,,Clear,200,2012-12-13 14:15:00
9:34 AM,32.9,24.1,70,30.38,10.0,SSW,5.8,-,N/A,,Clear,200,2012-12-13 14:34:00
9:55 AM,34.5,24.6,67,30.38,10.0,SSW,8.1,-,N/A,,Clear,210,2012-12-13 14:55:00
10:15 AM,35.8,25.2,65,30.38,10.0,SSW,5.8,-,N/A,,Clear,200,2012-12-13 15:15:00
10:34 AM,36.5,24.8,63,30.37,10.0,SSW,6.9,-,N/A,,Clear,210,2012-12-13 15:34:00
10:55 AM,37.6,24.8,60,30.37,10.0,SSW,8.1,-,N/A,,Clear,210,2012-12-13 15:55:00
11:14 AM,38.8,25.2,58,30.36,10.0,SSW,6.9,-,N/A,,Clear,210,2012-12-13 16:14:00
11:35 AM,39.6,25.5,57,30.36,10.0,SSW,4.6,-,N/A,,Clear,210,2012-12-13 16:35:00
11:55 AM,40.8,25.0,53,30.35,10.0,SSW,9.2,-,N/A,,Clear,200,2012-12-13 16:55:00
12:14 PM,41.0,25.0,53,30.33,10.0,SSW,6.9,-,N/A,,Clear,210,2012-12-13 17:14:00
12:35 PM,41.5,24.8,51,30.33,10.0,SSW,4.6,-,N/A,,Clear,200,2012-12-13 17:35:00
12:55 PM,43.0,25.2,49,30.32,10.0,SSW,5.8,-,N/A,,Clear,210,2012-12-13 17:55:00
1:15 PM,43.9,25.5,48,30.31,10.0,South,8.1,-,N/A,,Clear,190,2012-12-13 18:15:00
1:35 PM,44.1,23.9,45,30.30,10.0,SW,6.9,-,N/A,,Clear,220,2012-12-13 18:35:00
1:54 PM,44.8,22.8,42,30.30,10.0,South,6.9,-,N/A,,Clear,190,2012-12-13 18:54:00
2:15 PM,45.0,22.6,41,30.29,10.0,SSW,8.1,-,N/A,,Clear,210,2012-12-13 19:15:00
2:35 PM,44.6,23.7,44,30.27,10.0,South,6.9,-,N/A,,Clear,190,2012-12-13 19:35:00
2:55 PM,44.6,22.8,42,30.27,10.0,South,9.2,-,N/A,,Clear,190,2012-12-13 19:55:00
3:15 PM,44.6,22.3,41,30.27,10.0,SSW,10.4,-,N/A,,Clear,200,2012-12-13 20:15:00
3:35 PM,44.2,22.8,43,30.26,10.0,SSW,10.4,-,N/A,,Clear,200,2012-12-13 20:35:00
3:55 PM,43.0,22.6,45,30.27,10.0,SSW,9.2,-,N/A,,Clear,200,2012-12-13 20:55:00
4:15 PM,43.0,23.7,47,30.25,10.0,South,8.1,-,N/A,,Clear,190,2012-12-13 21:15:00
4:34 PM,42.4,25.3,51,30.24,10.0,South,8.1,-,N/A,,Clear,180,2012-12-13 21:34:00
4:55 PM,41.7,24.8,51,30.24,10.0,South,4.6,-,N/A,,Clear,180,2012-12-13 21:55:00
5:35 PM,40.1,25.7,56,30.23,10.0,South,6.9,-,N/A,,Clear,180,2012-12-13 22:35:00
8:15 PM,37.9,25.7,61,30.22,10.0,South,8.1,-,N/A,,Clear,190,2012-12-14 01:15:00
8:35 PM,37.8,25.3,61,30.21,10.0,South,6.9,-,N/A,,Clear,190,2012-12-14 01:35:00
8:54 PM,37.4,25.3,62,30.21,10.0,South,5.8,-,N/A,,Clear,180,2012-12-14 01:54:00
9:15 PM,36.9,25.3,63,30.21,10.0,SSW,4.6,-,N/A,,Clear,200,2012-12-14 02:15:00
9:35 PM,37.0,25.3,63,30.20,10.0,SSW,6.9,-,N/A,,Clear,200,2012-12-14 02:35:00
9:55 PM,37.4,25.3,62,30.20,10.0,SSW,9.2,-,N/A,,Clear,200,2012-12-14 02:55:00
10:15 PM,37.4,25.2,61,30.19,10.0,SSW,9.2,-,N/A,,Clear,200,2012-12-14 03:15:00
10:35 PM,36.9,25.2,63,30.20,10.0,SSW,8.1,-,N/A,,Clear,200,2012-12-14 03:35:00
10:55 PM,36.7,24.8,62,30.19,10.0,SSW,9.2,-,N/A,,Clear,200,2012-12-14 03:55:00
11:15 PM,36.5,24.8,63,30.19,10.0,SSW,9.2,-,N/A,,Clear,200,2012-12-14 04:15:00
11:34 PM,36.5,25.0,63,30.19,10.0,SSW,8.1,-,N/A,,Clear,200,2012-12-14 04:34:00
11:55 PM,36.7,24.8,62,30.20,10.0,SW,4.6,-,N/A,,Clear,220,2012-12-14 04:55:00